Weather in Masaka

Uganda     0°20′35″N   31°44′11″E
temp.,
°C
wind,
m/s
gust,
m/s
humid.,
%
clouds,
%
prec.,
mm/h
press.,
hPa
HPBL,
m
10 august, wed
wed1000:00+19nw2261100 0.0 101414
03:00+18wnw226070 0.0 101317
06:00+17wnw225831 0.0 101312
09:00+24w113680 0.0 1014283
12:00+29sse7530100 0.0 10122349
15:00+28se8634100 0.0 10091551
18:00+25se6841100 0.0 1010762
21:00+20ese23708 0.0 101262
11 august, thu
thu1100:00+20se116333 0.0 101211
03:00+18nw2267100 0.0 101133
06:00+18nnw2265100 0.0 101216
09:00+23ese1145100 0.0 1014283
12:00+29sse6629100 0.0 10112474
15:00+29sse8634100 0.0 10092115
18:00+24se6852100 0.0 1010676
21:00+20ese237682 0.0 101249
12 august, fri
fri1200:00+20nw116395 0.0 101111
03:00+18wnw2272100 0.0 101017
06:00+17nne1180100 0.0 101315
09:00+23nne225160 0.0 1014399
12:00+29se5534100 0.0 10112607
15:00+26se7744100 0.0 10101262
18:00+23se4659100 0.0 1011571
21:00+21e246654 0.0 1012131
13 august, sat
sat1300:00+19nne117047 0.0 101211
03:00+20wnw236725 0.0 101181
06:00+19nnw2269100 0.0 101236
09:00+22nne225870 0.0 1014267
12:00+30se232993 0.0 10112675
15:00+26se7642100 0.0 1009883
18:00+23se4761100 0.0 1010457
21:00+22nne116783 0.0 101223
14 august, sun
sun1400:00+20nnw227444 0.0 101225
03:00+19nw377045 0.0 1011166
06:00+18nnw238377 0.0 101248
09:00+23nnw456058 0.0 1013592
12:00+30nnw3333100 0.0 10112360
15:00+25ese5549100 0.2 1009745
18:00+24e4653100 0.3 1009415
21:00+21n5875100 0.4 1012333